This demonstration page uses our WeatherBlox Daily Observations layout. Learn more.

Left ArrowRight Arrow

39.08367, -84.50855

Hourly Observations for August 29, 2019

Temp ( °F °C ) Dew Point ( °F °C ) Humidity (%) Winds ( mph kmh ) Pressure ( in mb ) Visibility ( mi km ) Precip ( " mm )
12:53 am 00:53 Clear 59 15 58 14.4 96 96 N N/A 30.04 1017 10 16 N/A
1:53 am 01:53 Clear 58 14.4 57 13.9 97 97 N N/A 30.04 1017 8 13 N/A
2:44 am 02:44 Clear with Mist and Fog 57 13.9 57 13.9 100 100 N N/A 30.05 1018 2 3 N/A
2:50 am 02:50 Clear with Mist and Fog 57 14 57 14 100 100 N N/A 30.05 1018 3 5 N/A
2:53 am 02:53 Clear 57 13.9 57 13.9 100 100 N N/A 30.04 1017 7 11 N/A
3:09 am 03:09 Clear with Mist and Fog 56 13.3 56 13.3 100 100 N N/A 30.05 1018 2 3 N/A
3:28 am 03:28 Clear with Mist and Fog 56 13.3 56 13.3 100 100 N N/A 30.05 1018 3 5 N/A
3:31 am 03:31 Clear with Mist and Fog 55 12.8 55 12.8 100 100 N N/A 30.05 1018 2 3 N/A
3:45 am 03:45 Clear with Mist and Fog 55 12.8 55 12.8 100 100 N N/A 30.05 1018 4 6 N/A
3:53 am 03:53 Clear 55 12.8 55 12.8 100 100 N N/A 30.04 1017 8 13 N/A
4:53 am 04:53 Clear with Mist and Fog 55 12.8 55 12.8 100 100 N N/A 30.05 1018 3 5 N/A
4:55 am 04:55 Clear with Mist and Fog 55 12.8 55 12.8 100 100 N N/A 30.06 1018 2 3 N/A
5:06 am 05:06 Clear with Mist and Fog 55 12.8 55 12.8 100 100 N N/A 30.06 1018 1 1 N/A
5:12 am 05:12 Clear with Mist and Fog 55 12.8 55 12.8 100 100 N N/A 30.06 1018 2 3 N/A
5:26 am 05:26 Clear 55 12.8 55 12.8 100 100 N N/A 30.07 1018 9 14 N/A
5:53 am 05:53 Clear 55 12.8 55 12.8 100 100 N N/A 30.07 1018 8 13 N/A
6:12 am 06:12 Clear with Mist and Fog 55 12.8 54 12.2 96 96 N N/A 30.08 1019 1 1 N/A
6:21 am 06:21 Mostly Cloudy with Mist and Fog 53 11.7 53 11.7 100 100 N N/A 30.09 1019 1 1 N/A
6:28 am 06:28 Mostly Cloudy with Mist and Fog 54 12.2 54 12.2 100 100 N N/A 30.09 1019 1 2 N/A
6:36 am 06:36 Mostly Cloudy with Fog 54 12.2 54 12.2 100 100 N N/A 30.09 1019 1 1 N/A
6:53 am 06:53 Clear with Patchy Fog 54 12.2 54 12.2 100 100 N N/A 30.08 1019 10 16 N/A
7:53 am 07:53 Sunny 56 13.3 56 13.3 100 100 N N/A 30.10 1019 10 16 N/A
8:53 am 08:53 Sunny 63 17.2 60 15.6 90 90 N N/A 30.10 1019 10 16 N/A
9:53 am 09:53 Sunny 68 20 60 15.6 76 76 S 5 7 30.11 1020 10 16 N/A
10:53 am 10:53 Sunny 73 22.8 59 15 62 62 SW 6 9 30.10 1019 10 16 N/A
11:53 am 11:53 Sunny 77 25 60 15.6 56 56 SSW 7 11 30.09 1019 10 16 N/A
12:53 pm 12:53 Mostly Sunny 79 26.1 57 13.9 47 47 SW 7 11 30.08 1019 10 16 N/A
1:53 pm 13:53 Sunny 81 27.2 60 15.6 49 49 W 10 17 30.06 1018 10 16 N/A
2:53 pm 14:53 Mostly Sunny 82 27.8 61 16.1 49 49 WSW 7 11 30.05 1018 10 16 N/A
3:53 pm 15:53 Mostly Sunny 80 26.7 58 14.4 47 47 WSW 9 15 30.04 1017 10 16 N/A
4:53 pm 16:53 Partly Cloudy 82 27.8 60 15.6 47 47 SW 9 15 30.03 1017 10 16 N/A
5:53 pm 17:53 Mostly Sunny 81 27.2 61 16.1 51 51 SW 9 15 30.01 1016 10 16 N/A
6:53 pm 18:53 Sunny 79 26.1 61 16.1 54 54 SSW 12 19 30.00 1016 10 16 N/A
7:53 pm 19:53 Sunny 74 23.3 62 16.7 67 67 SSW 8 13 30.00 1016 10 16 N/A
8:53 pm 20:53 Clear 70 21.1 64 17.8 82 82 S 3 6 30.01 1016 10 16 N/A
9:53 pm 21:53 Clear 65 18.3 62 16.7 90 90 SW 5 7 30.02 1017 10 16 N/A
10:53 pm 22:53 Partly Cloudy 68 20 63 17.2 84 84 N N/A 30.03 1017 10 16 N/A
11:53 pm 23:53 Mostly Cloudy 68 20 63 17.2 84 84 SSW 6 9 30.04 1017 10 16 0.00 0.00

Powered by AerisWeather